Orbital Elements at Epoch 2459200.5 (2020-Dec-17.0) TDB
Reference: JPL 17 (heliocentric ecliptic J2000)
Element | Value | Uncertainty (1-sigma) | Units |
e | .1391748417434702 | 7.2173e-08 | |
a | 5.205359709101069 | 1.4578e-07 | au |
q | 4.480904595369092 | 4.6308e-07 | au |
i | 10.11472104299576 | 5.0319e-06 | deg |
node | 128.1918277410594 | 4.0114e-05 | deg |
peri | 161.226048908095 | 4.7729e-05 | deg |
M | 317.8216924936306 | 2.8718e-05 | deg |
tp | 2459708.731049698239 (2022-May-09.23104970) | 0.00035241 | TDB |
period | 4337.850158253418 11.88 | 0.00018223 4.989e-07 | d yr |
n | .08299041849452669 | 3.4864e-09 | deg/d |
Q | 5.929814822833047 | 1.6607e-07 | au |
|
| | Orbit Determination Parameters
Additional Information
|